DAL2230 KLAX-KSLC

Flight info

Callsign DAL2230
Flight time N/A
Altitude 35000
Route ORCKA5 LAS Q70 BLIPP Q842 WINEN MLF QWENN6
Aircraft A320/M-SDE3FGHIRWY/LB1

Departure

Time 2026-05-06 20:31
Airport Los Angeles International Airport (KLAX)

Arrival

Time N/A
Airport Salt Lake City International Airport (KSLC)
Time Latitude Longitude Altitude Speed Heading
2026-05-06 20:01 33.94676 -118.40657 95 ft 0 kts 263°
2026-05-06 20:23 33.94678 -118.40641 95 ft 4 kts 263°
2026-05-06 20:24 33.94681 -118.40609 95 ft 4 kts 263°
2026-05-06 20:24 33.94683 -118.40577 95 ft 4 kts 284°
2026-05-06 20:24 33.94671 -118.40553 97 ft 4 kts 341°
2026-05-06 20:24 33.94663 -118.40550 95 ft 0 kts 353°
2026-05-06 20:26 33.94684 -118.40555 98 ft 7 kts 346°
2026-05-06 20:26 33.94724 -118.40576 97 ft 5 kts 333°
2026-05-06 20:27 33.94751 -118.40590 96 ft 3 kts 340°
2026-05-06 20:27 33.94778 -118.40596 98 ft 5 kts 351°
2026-05-06 20:27 33.94819 -118.40600 99 ft 7 kts 356°
2026-05-06 20:27 33.94862 -118.40586 100 ft 7 kts 47°
2026-05-06 20:28 33.94875 -118.40524 100 ft 9 kts 82°
2026-05-06 20:28 33.94883 -118.40440 101 ft 10 kts 84°
2026-05-06 20:28 33.94889 -118.40366 100 ft 8 kts 83°
2026-05-06 20:28 33.94896 -118.40301 100 ft 7 kts 83°
2026-05-06 20:29 33.94901 -118.40247 99 ft 6 kts 83°
2026-05-06 20:29 33.94910 -118.40200 101 ft 7 kts 64°
2026-05-06 20:29 33.94952 -118.40171 104 ft 6 kts
2026-05-06 20:29 33.94987 -118.40178 108 ft 5 kts 344°
2026-05-06 20:30 33.95015 -118.40213 109 ft 8 kts 278°
2026-05-06 20:30 33.95011 -118.40264 109 ft 24 kts 264°
2026-05-06 20:30 33.94960 -118.40777 108 ft 95 kts 261°
2026-05-06 20:31 33.94850 -118.41808 107 ft 150 kts 263°
2026-05-06 20:31 33.94724 -118.43173 429 ft 168 kts 263°
2026-05-06 20:31 33.94606 -118.44595 1060 ft 174 kts 263°
2026-05-06 20:31 33.94483 -118.46060 1747 ft 176 kts 262°
2026-05-06 20:32 33.94310 -118.47579 2209 ft 193 kts 261°
2026-05-06 20:32 33.94103 -118.49276 2568 ft 214 kts 261°
2026-05-06 20:32 33.93878 -118.51140 3000 ft 234 kts 262°
2026-05-06 20:32 33.93646 -118.53102 3664 ft 240 kts 262°
2026-05-06 20:33 33.93406 -118.55176 4157 ft 259 kts 262°
2026-05-06 20:33 33.93134 -118.57359 4770 ft 269 kts 257°
2026-05-06 20:33 33.92338 -118.59387 5141 ft 273 kts 230°
2026-05-06 20:33 33.90858 -118.60806 5989 ft 276 kts 205°
2026-05-06 20:34 33.88987 -118.61319 6776 ft 281 kts 178°
2026-05-06 20:34 33.87093 -118.60732 7544 ft 285 kts 150°
2026-05-06 20:34 33.85625 -118.59154 8295 ft 288 kts 122°
2026-05-06 20:34 33.84915 -118.56906 9045 ft 290 kts 94°
2026-05-06 20:35 33.85158 -118.54517 9784 ft 291 kts 67°
2026-05-06 20:35 33.86262 -118.52480 10382 ft 299 kts 48°
2026-05-06 20:35 33.87694 -118.50567 10586 ft 322 kts 46°
2026-05-06 20:35 33.89268 -118.48550 10951 ft 336 kts 46°
2026-05-06 20:36 33.90894 -118.46489 11614 ft 340 kts 46°
2026-05-06 20:36 33.92493 -118.44453 12335 ft 342 kts 47°
2026-05-06 20:36 33.93702 -118.42566 12962 ft 344 kts 55°
2026-05-06 20:36 33.95020 -118.40201 13687 ft 345 kts 54°
2026-05-06 20:37 33.96373 -118.37806 14372 ft 347 kts 54°
2026-05-06 20:37 33.97297 -118.36181 14827 ft 347 kts 54°
2026-05-06 20:37 33.97505 -118.35816 14928 ft 348 kts 54°
2026-05-06 20:37 33.98880 -118.33404 15556 ft 350 kts 54°
2026-05-06 20:38 34.00266 -118.30977 16213 ft 352 kts 54°
2026-05-06 20:38 34.01653 -118.28545 16837 ft 354 kts 54°
2026-05-06 20:38 34.03049 -118.26090 17456 ft 355 kts 54°
2026-05-06 20:38 34.04443 -118.23630 18049 ft 357 kts 54°
2026-05-06 20:39 34.05849 -118.21144 18633 ft 359 kts 54°
2026-05-06 20:39 34.07257 -118.18651 19197 ft 361 kts 54°
2026-05-06 20:39 34.08677 -118.16135 19719 ft 364 kts 54°
2026-05-06 20:39 34.10109 -118.13597 20245 ft 367 kts 54°
2026-05-06 20:40 34.11555 -118.11036 20751 ft 371 kts 54°
2026-05-06 20:40 34.13016 -118.08453 21243 ft 374 kts 54°
2026-05-06 20:40 34.14486 -118.05854 21718 ft 377 kts 54°
2026-05-06 20:40 34.15967 -118.03235 22189 ft 379 kts 54°
2026-05-06 20:41 34.17457 -118.00594 22634 ft 382 kts 54°
2026-05-06 20:41 34.18954 -117.97936 23051 ft 384 kts 54°
2026-05-06 20:41 34.20460 -117.95254 23420 ft 387 kts 54°
2026-05-06 20:41 34.21974 -117.92561 23832 ft 389 kts 54°
2026-05-06 20:42 34.23497 -117.89850 24199 ft 392 kts 54°
2026-05-06 20:42 34.25029 -117.87117 24584 ft 394 kts 54°
2026-05-06 20:42 34.26569 -117.84366 24965 ft 396 kts 54°
2026-05-06 20:42 34.28111 -117.81606 25323 ft 397 kts 54°
2026-05-06 20:43 34.29659 -117.78838 25658 ft 398 kts 54°
2026-05-06 20:43 34.31215 -117.76056 26004 ft 400 kts 54°
2026-05-06 20:43 34.32776 -117.73262 26339 ft 401 kts 54°
2026-05-06 20:43 34.34343 -117.70456 26665 ft 403 kts 54°
2026-05-06 20:44 34.35899 -117.67691 26980 ft 404 kts 54°
2026-05-06 20:44 34.37545 -117.64879 27322 ft 405 kts 53°
2026-05-06 20:44 34.39183 -117.62154 27646 ft 406 kts 52°
2026-05-06 20:44 34.40860 -117.59394 27963 ft 407 kts 52°
2026-05-06 20:45 34.42540 -117.56628 28277 ft 408 kts 52°
2026-05-06 20:45 34.44221 -117.53849 28563 ft 410 kts 52°
2026-05-06 20:45 34.45901 -117.51055 28837 ft 411 kts 52°
2026-05-06 20:45 34.47578 -117.48244 29108 ft 412 kts 53°
2026-05-06 20:46 34.49273 -117.45390 29376 ft 413 kts 53°
2026-05-06 20:46 34.50951 -117.42560 29628 ft 414 kts 53°
2026-05-06 20:46 34.52632 -117.39722 29865 ft 415 kts 53°
2026-05-06 20:46 34.54318 -117.36872 30119 ft 415 kts 53°
2026-05-06 20:47 34.55976 -117.34067 30448 ft 413 kts 53°
2026-05-06 20:47 34.57650 -117.31234 30774 ft 412 kts 53°
2026-05-06 20:47 34.59312 -117.28422 31085 ft 410 kts 53°
2026-05-06 20:47 34.60976 -117.25612 31378 ft 409 kts 52°
2026-05-06 20:48 34.62637 -117.22812 31673 ft 408 kts 52°
2026-05-06 20:48 34.64288 -117.20018 31964 ft 407 kts 53°
2026-05-06 20:48 34.65932 -117.17226 32237 ft 406 kts 53°
2026-05-06 20:48 34.67572 -117.14437 32520 ft 405 kts 53°
2026-05-06 20:49 34.69210 -117.11651 32810 ft 404 kts 53°
2026-05-06 20:49 34.70842 -117.08878 33081 ft 403 kts 52°
2026-05-06 20:49 34.72472 -117.06115 33369 ft 402 kts 52°
2026-05-06 20:49 34.74102 -117.03350 33648 ft 401 kts 52°
2026-05-06 20:50 34.75718 -117.00603 33923 ft 400 kts 52°
2026-05-06 20:50 34.77333 -116.97851 34192 ft 399 kts 52°
2026-05-06 20:50 34.78940 -116.95112 34444 ft 398 kts 52°
2026-05-06 20:50 34.80548 -116.92367 34641 ft 399 kts 52°
2026-05-06 20:51 34.82163 -116.89610 34838 ft 400 kts 52°
2026-05-06 20:51 34.83778 -116.86849 35027 ft 401 kts 52°
2026-05-06 20:51 34.85392 -116.84083 35089 ft 402 kts 52°
2026-05-06 20:52 34.88636 -116.78511 35096 ft 403 kts 52°
2026-05-06 20:52 34.91902 -116.72958 35096 ft 403 kts 49°
2026-05-06 20:53 34.95674 -116.67926 35086 ft 402 kts 46°
2026-05-06 20:53 34.99478 -116.62933 35089 ft 402 kts 46°
2026-05-06 20:54 35.03273 -116.57929 35093 ft 402 kts 46°
2026-05-06 20:54 35.07066 -116.52920 35093 ft 402 kts 46°
2026-05-06 20:55 35.10860 -116.47906 35095 ft 402 kts 46°
2026-05-06 20:55 35.14658 -116.42887 35100 ft 402 kts 46°
2026-05-06 20:56 35.18448 -116.37857 35097 ft 402 kts 46°
2026-05-06 20:56 35.22232 -116.32833 35100 ft 402 kts 45°
2026-05-06 20:57 35.26019 -116.27812 35103 ft 401 kts 46°
2026-05-06 20:57 35.29791 -116.22785 35105 ft 401 kts 46°
2026-05-06 20:58 35.33560 -116.17758 35107 ft 400 kts 45°
2026-05-06 20:58 35.37317 -116.12731 35106 ft 400 kts 46°
2026-05-06 20:59 35.41070 -116.07712 35100 ft 399 kts 45°
2026-05-06 20:59 35.44812 -116.02697 35100 ft 399 kts 45°
2026-05-06 21:00 35.47920 -115.98529 35096 ft 398 kts 45°
2026-05-06 21:00 35.51659 -115.93507 35088 ft 399 kts 45°
2026-05-06 21:01 35.55402 -115.88476 35086 ft 399 kts 45°
2026-05-06 21:01 35.59137 -115.83443 35087 ft 398 kts 46°
2026-05-06 21:02 35.62861 -115.78412 35089 ft 398 kts 46°
2026-05-06 21:02 35.66571 -115.73359 35089 ft 398 kts 46°
2026-05-06 21:03 35.70258 -115.68278 35085 ft 398 kts 46°
2026-05-06 21:03 35.73938 -115.63192 35083 ft 398 kts 46°
2026-05-06 21:04 35.77622 -115.58104 35090 ft 398 kts 46°
2026-05-06 21:04 35.81310 -115.53024 35080 ft 398 kts 46°
2026-05-06 21:05 35.85002 -115.47929 35091 ft 398 kts 46°
2026-05-06 21:05 35.88688 -115.42825 35094 ft 399 kts 46°
2026-05-06 21:06 35.92372 -115.37716 35089 ft 399 kts 46°
2026-05-06 21:06 35.96051 -115.32608 35093 ft 399 kts 46°
2026-05-06 21:07 35.99717 -115.27509 35078 ft 399 kts 46°
2026-05-06 21:07 36.03304 -115.22495 35099 ft 398 kts 46°
2026-05-06 21:08 36.07019 -115.17301 35105 ft 397 kts 46°
2026-05-06 21:08 36.11044 -115.12665 35098 ft 394 kts 39°
2026-05-06 21:09 36.15189 -115.08220 35071 ft 395 kts 39°
2026-05-06 21:09 36.19353 -115.03747 35035 ft 397 kts 39°
2026-05-06 21:10 36.23521 -114.99248 35015 ft 398 kts 39°
2026-05-06 21:10 36.27706 -114.94725 35004 ft 399 kts 39°
2026-05-06 21:11 36.31887 -114.90206 35007 ft 399 kts 39°
2026-05-06 21:11 36.36049 -114.85696 35008 ft 399 kts 39°
2026-05-06 21:12 36.40245 -114.81137 35001 ft 399 kts 39°
2026-05-06 21:12 36.44425 -114.76590 35006 ft 399 kts 39°
2026-05-06 21:13 36.48597 -114.72051 35010 ft 399 kts 39°
2026-05-06 21:13 36.52746 -114.67533 35009 ft 399 kts 39°
2026-05-06 21:14 36.56917 -114.62988 35015 ft 399 kts 39°
2026-05-06 21:14 36.61095 -114.58420 35020 ft 400 kts 39°
2026-05-06 21:15 36.65264 -114.53851 35021 ft 399 kts 39°
2026-05-06 21:15 36.69431 -114.49286 35024 ft 399 kts 39°
2026-05-06 21:16 36.73905 -114.45246 35026 ft 397 kts 31°
2026-05-06 21:16 36.78592 -114.41583 35026 ft 397 kts 31°
2026-05-06 21:17 36.83264 -114.37922 35028 ft 397 kts 31°
2026-05-06 21:17 36.87939 -114.34253 35029 ft 397 kts 31°
2026-05-06 21:18 36.92619 -114.30565 35032 ft 398 kts 31°
2026-05-06 21:18 36.97304 -114.26877 35032 ft 398 kts 31°
2026-05-06 21:19 37.01993 -114.23175 35038 ft 398 kts 31°
2026-05-06 21:19 37.06678 -114.19470 35047 ft 398 kts 31°
2026-05-06 21:20 37.11366 -114.15765 35055 ft 398 kts 31°
2026-05-06 21:20 37.16055 -114.12052 35065 ft 399 kts 31°
2026-05-06 21:21 37.20741 -114.08331 35068 ft 399 kts 31°
2026-05-06 21:21 37.25424 -114.04613 35073 ft 398 kts 31°
2026-05-06 21:22 37.30111 -114.00890 35077 ft 399 kts 31°
2026-05-06 21:22 37.34794 -113.97162 35075 ft 398 kts 31°
2026-05-06 21:23 37.39461 -113.93427 35089 ft 397 kts 31°
2026-05-06 21:23 37.44124 -113.89694 35090 ft 398 kts 30°
2026-05-06 21:24 37.48797 -113.85954 35103 ft 397 kts 31°
2026-05-06 21:24 37.53466 -113.82211 35119 ft 397 kts 31°
2026-05-06 21:25 37.58126 -113.78465 35120 ft 397 kts 31°
2026-05-06 21:25 37.62781 -113.74722 35121 ft 397 kts 31°
2026-05-06 21:26 37.67439 -113.70971 35125 ft 397 kts 31°
2026-05-06 21:26 37.72091 -113.67227 35129 ft 397 kts 31°
2026-05-06 21:27 37.76744 -113.63469 35153 ft 397 kts 31°
2026-05-06 21:27 37.81399 -113.59692 35170 ft 397 kts 31°
2026-05-06 21:28 37.86053 -113.55919 35181 ft 397 kts 31°
2026-05-06 21:28 37.90705 -113.52145 35186 ft 397 kts 31°
2026-05-06 21:29 37.95136 -113.47971 35187 ft 399 kts 39°
2026-05-06 21:29 37.99269 -113.43266 35182 ft 399 kts 39°
2026-05-06 21:30 38.03416 -113.38588 35183 ft 399 kts 38°
2026-05-06 21:30 38.07561 -113.33892 35181 ft 399 kts 38°
2026-05-06 21:31 38.11696 -113.29187 35181 ft 399 kts 38°
2026-05-06 21:31 38.15828 -113.24473 35181 ft 399 kts 38°
2026-05-06 21:32 38.19963 -113.19750 35181 ft 399 kts 38°
2026-05-06 21:32 38.26158 -113.12656 35185 ft 400 kts 38°